owner,sensor,date,latitude,longitude,vertical_datum,wind_speed,wind_to_direction,wind_speed_of_gust,qcFlag 
TABS,ioos:station:wmo:42046:1,2008-09-01T00:00:00Z,27.8903,-94.0367,4.0,6.340930531,9.714622593,7.96,'11111222,11111222,11111222' 
TABS,ioos:station:wmo:42046:1,2008-09-01T00:30:00Z,27.8903,-94.0367,4.0,6.232888576,18.23121081,7.91,'11111222,11111222,11111222' 
TABS,ioos:station:wmo:42046:1,2008-09-01T01:00:00Z,27.8903,-94.0367,4.0,6.310190171,21.2784536,7.93,'11111222,11111222,11111222' 
TABS,ioos:station:wmo:42046:1,2008-09-01T01:30:00Z,27.8903,-94.0367,4.0,6.611300931,23.34625862,8.22,'11111222,11111222,11111222' 
TABS,ioos:station:wmo:42046:1,2008-09-01T02:00:00Z,27.8903,-94.0367,4.0,6.426196387,35.3715507,8.18,'11111222,11111222,11111222' 
TABS,ioos:station:wmo:42046:1,2008-09-01T02:30:00Z,27.8903,-94.0367,4.0,6.593034203,48.13519483,8.2,'11111222,11111222,11111222' 
TABS,ioos:station:wmo:42046:1,2008-09-01T03:00:00Z,27.8903,-94.0367,4.0,6.482136993,34.37621445,8.01,'11111222,11111222,11111222' 
TABS,ioos:station:wmo:42046:1,2008-09-01T03:30:00Z,27.8903,-94.0367,4.0,6.283351017,28.72662192,8.17,'11111222,11111222,11111222' 
TABS,ioos:station:wmo:42046:1,2008-09-01T04:00:00Z,27.8903,-94.0367,4.0,5.832572331,27.57525652,7.58,'11111222,11111222,11111222' 
TABS,ioos:station:wmo:42046:1,2008-09-01T04:30:00Z,27.8903,-94.0367,4.0,6.789359322,28.79202987,8.66,'11111222,11111222,11111222' 
TABS,ioos:station:wmo:42046:1,2008-09-01T05:00:00Z,27.8903,-94.0367,4.0,6.343855295,30.60721985,8.06,'11111222,11111222,11111222' 
TABS,ioos:station:wmo:42046:1,2008-09-01T05:30:00Z,27.8903,-94.0367,4.0,7.281572632,39.4828759,10.55,'11111222,11111222,11111222' 
TABS,ioos:station:wmo:42046:1,2008-09-01T06:00:00Z,27.8903,-94.0367,4.0,7.223987818,40.17084984,9.31,'11111222,11111222,11111222' 
TABS,ioos:station:wmo:42046:1,2008-09-01T06:30:00Z,27.8903,-94.0367,4.0,6.68413794,28.21339492,8.38,'11111222,11111222,11111222' 
TABS,ioos:station:wmo:42046:1,2008-09-01T07:00:00Z,27.8903,-94.0367,4.0,6.20097573,1.016218548,8.18,'11111222,11111222,11111222' 
TABS,ioos:station:wmo:42046:1,2008-09-01T07:30:00Z,27.8903,-94.0367,4.0,6.367495583,6.220724915,8.21,'11111222,11111222,11111222' 
TABS,ioos:station:wmo:42046:1,2008-09-01T08:00:00Z,27.8903,-94.0367,4.0,6.372832965,1.708258303,8.65,'11111222,11111222,11111222' 
TABS,ioos:station:wmo:42046:1,2008-09-01T08:30:00Z,27.8903,-94.0367,4.0,5.607209645,16.36622567,8.12,'11111222,11111222,11111222' 
TABS,ioos:station:wmo:42046:1,2008-09-01T09:00:00Z,27.8903,-94.0367,4.0,6.811086551,354.5235807,9.01,'11111222,11111222,11111222' 
TABS,ioos:station:wmo:42046:1,2008-09-01T09:30:00Z,27.8903,-94.0367,4.0,7.620419936,359.3982826,9.69,'11111222,11144222,11111222' 
TABS,ioos:station:wmo:42046:1,2008-09-01T10:00:00Z,27.8903,-94.0367,4.0,6.605936724,357.5705219,8.69,'11111222,11111222,11111222' 
TABS,ioos:station:wmo:42046:1,2008-09-01T10:30:00Z,27.8903,-94.0367,4.0,7.350516989,350.9988177,9.24,'11111222,11111222,11111222' 
TABS,ioos:station:wmo:42046:1,2008-09-01T11:00:00Z,27.8903,-94.0367,4.0,7.70553697,333.2352808,10.21,'11111222,11111222,11111222' 
TABS,ioos:station:wmo:42046:1,2008-09-01T11:30:00Z,27.8903,-94.0367,4.0,8.004380051,323.6883138,11.02,'11111222,11111222,11111222' 
TABS,ioos:station:wmo:42046:1,2008-09-01T12:00:00Z,27.8903,-94.0367,4.0,8.227375037,316.7236631,10.72,'11111222,11111222,11111222' 
TABS,ioos:station:wmo:42046:1,2008-09-01T12:30:00Z,27.8903,-94.0367,4.0,8.174019819,325.6682408,10.24,'11111222,11111222,11111222' 
TABS,ioos:station:wmo:42046:1,2008-09-01T13:00:00Z,27.8903,-94.0367,4.0,8.721290042,329.7008628,11.15,'11111222,11111222,11111222' 
TABS,ioos:station:wmo:42046:1,2008-09-01T13:30:00Z,27.8903,-94.0367,4.0,9.080198236,323.5085782,11.25,'11111222,11111222,11111222' 
TABS,ioos:station:wmo:42046:1,2008-09-01T14:00:00Z,27.8903,-94.0367,4.0,9.573113391,322.2561257,12.29,'11111222,11111222,11111222' 
TABS,ioos:station:wmo:42046:1,2008-09-01T14:30:00Z,27.8903,-94.0367,4.0,9.6240532,307.0603199,12.44,'11111222,11111222,11111222' 
TABS,ioos:station:wmo:42046:1,2008-09-01T15:00:00Z,27.8903,-94.0367,4.0,9.560047071,307.0496089,12.76,'11111222,11111222,11111222' 
TABS,ioos:station:wmo:42046:1,2008-09-01T15:30:00Z,27.8903,-94.0367,4.0,9.790020429,306.9868606,13.22,'11111222,11111222,11111222' 
TABS,ioos:station:wmo:42046:1,2008-09-01T16:00:00Z,27.8903,-94.0367,4.0,9.385542073,303.7915767,12.7,'11111222,11111222,11111222' 
TABS,ioos:station:wmo:42046:1,2008-09-01T16:30:00Z,27.8903,-94.0367,4.0,9.879316778,302.3065381,12.82,'11111222,11111222,11111222' 
TABS,ioos:station:wmo:42046:1,2008-09-01T17:00:00Z,27.8903,-94.0367,4.0,10.1252358,297.0205102,13.59,'11111222,11111222,11111222' 
TABS,ioos:station:wmo:42046:1,2008-09-01T17:30:00Z,27.8903,-94.0367,4.0,10.15157623,292.776108,13.04,'11111222,11111222,11111222' 
TABS,ioos:station:wmo:42046:1,2008-09-01T18:00:00Z,27.8903,-94.0367,4.0,10.1152558,286.0698465,13.01,'11111222,11111222,11111222' 
TABS,ioos:station:wmo:42046:1,2008-09-01T18:30:00Z,27.8903,-94.0367,4.0,10.11001978,286.373511,13.55,'11111222,11111222,11111222' 
TABS,ioos:station:wmo:42046:1,2008-09-01T19:00:00Z,27.8903,-94.0367,4.0,9.942363904,288.1068808,12.69,'11111222,11111222,11111222' 
TABS,ioos:station:wmo:42046:1,2008-09-01T19:30:00Z,27.8903,-94.0367,4.0,9.607085927,286.9448381,12.83,'11111222,11111222,11111222' 
TABS,ioos:station:wmo:42046:1,2008-09-01T20:00:00Z,27.8903,-94.0367,4.0,9.635372333,285.1612071,12.49,'11111222,11111222,11111222' 
TABS,ioos:station:wmo:42046:1,2008-09-01T20:30:00Z,27.8903,-94.0367,4.0,9.029695454,284.2978328,12.24,'11111222,11111222,11111222' 
TABS,ioos:station:wmo:42046:1,2008-09-01T21:00:00Z,27.8903,-94.0367,4.0,9.094069496,283.0276425,11.75,'11111222,11111222,11111222' 
TABS,ioos:station:wmo:42046:1,2008-09-01T21:30:00Z,27.8903,-94.0367,4.0,9.044877003,281.2850597,11.39,'11111222,11111222,11111222' 
TABS,ioos:station:wmo:42046:1,2008-09-01T22:00:00Z,27.8903,-94.0367,4.0,8.865799456,275.8263284,11.22,'11111222,11111222,11111222' 
TABS,ioos:station:wmo:42046:1,2008-09-01T22:30:00Z,27.8903,-94.0367,4.0,7.93782086,276.2923508,10.25,'11111222,11111222,11111222' 
TABS,ioos:station:wmo:42046:1,2008-09-01T23:00:00Z,27.8903,-94.0367,4.0,7.509620496,272.9004991,9.65,'11111222,11111222,11111222' 
TABS,ioos:station:wmo:42046:1,2008-09-01T23:30:00Z,27.8903,-94.0367,4.0,6.569322644,275.4155124,8.83,'11111222,11111222,11111222' 
TABS,ioos:station:wmo:42046:1,2008-09-02T00:00:00Z,27.8903,-94.0367,4.0,6.604672588,266.1801635,8.68,'11111222,11111222,11111222' 
TABS,ioos:station:wmo:42046:1,2008-09-02T00:30:00Z,27.8903,-94.0367,4.0,6.41,270.0,8.64,'11111222,11111222,11111222' 
TABS,ioos:station:wmo:42046:1,2008-09-02T01:00:00Z,27.8903,-94.0367,4.0,7.130007013,260.3923804,9.28,'11111222,11111222,11111222' 
TABS,ioos:station:wmo:42046:1,2008-09-02T01:30:00Z,27.8903,-94.0367,4.0,7.666615942,255.7281553,10.14,'11111222,11111222,11111222' 
TABS,ioos:station:wmo:42046:1,2008-09-02T02:00:00Z,27.8903,-94.0367,4.0,7.233429339,254.196085,9.36,'11111222,11111222,11111222' 
TABS,ioos:station:wmo:42046:1,2008-09-02T02:30:00Z,27.8903,-94.0367,4.0,7.229612714,254.59895,8.94,'11111222,11111222,11111222' 
TABS,ioos:station:wmo:42046:1,2008-09-02T03:00:00Z,27.8903,-94.0367,4.0,8.037816868,250.1448321,10.55,'11111222,11111222,11111222' 
TABS,ioos:station:wmo:42046:1,2008-09-02T03:30:00Z,27.8903,-94.0367,4.0,7.65692497,247.4204802,10.2,'11111222,11111222,11111222' 
TABS,ioos:station:wmo:42046:1,2008-09-02T04:00:00Z,27.8903,-94.0367,4.0,7.944230611,246.4037152,10.09,'11111222,11111222,11111222' 
TABS,ioos:station:wmo:42046:1,2008-09-02T04:30:00Z,27.8903,-94.0367,4.0,8.218479178,245.0252818,10.24,'11111222,11111222,11111222' 
TABS,ioos:station:wmo:42046:1,2008-09-02T05:00:00Z,27.8903,-94.0367,4.0,8.588859063,244.7776318,10.84,'11111222,11111222,11111222' 
TABS,ioos:station:wmo:42046:1,2008-09-02T05:30:00Z,27.8903,-94.0367,4.0,8.911189595,242.0259143,11.8,'11111222,11111222,11111222' 
TABS,ioos:station:wmo:42046:1,2008-09-02T06:00:00Z,27.8903,-94.0367,4.0,9.094355392,240.5599495,12.32,'11111222,11111222,11111222' 
TABS,ioos:station:wmo:42046:1,2008-09-02T06:30:00Z,27.8903,-94.0367,4.0,8.80460107,234.5229235,11.26,'11111222,11111222,11111222' 
TABS,ioos:station:wmo:42046:1,2008-09-02T07:00:00Z,27.8903,-94.0367,4.0,8.952072386,232.8997784,11.74,'11111222,11111222,11111222' 
TABS,ioos:station:wmo:42046:1,2008-09-02T07:30:00Z,27.8903,-94.0367,4.0,9.750128204,232.8363673,12.17,'11111222,11111222,11111222' 
TABS,ioos:station:wmo:42046:1,2008-09-02T08:00:00Z,27.8903,-94.0367,4.0,9.504409503,234.4203586,12.33,'11111222,11111222,11111222' 
TABS,ioos:station:wmo:42046:1,2008-09-02T08:30:00Z,27.8903,-94.0367,4.0,9.192001958,233.0927893,11.51,'11111222,11111222,11111222' 
TABS,ioos:station:wmo:42046:1,2008-09-02T09:00:00Z,27.8903,-94.0367,4.0,9.472486474,232.5495093,11.96,'11111222,11111222,11111222' 
TABS,ioos:station:wmo:42046:1,2008-09-02T09:30:00Z,27.8903,-94.0367,4.0,8.916703427,233.8498807,11.71,'11111222,11111222,11111222' 
TABS,ioos:station:wmo:42046:1,2008-09-02T10:00:00Z,27.8903,-94.0367,4.0,9.211145423,229.8440943,11.68,'11111222,11111222,11111222' 
TABS,ioos:station:wmo:42046:1,2008-09-02T10:30:00Z,27.8903,-94.0367,4.0,9.337820945,229.212452,11.78,'11111222,11111222,11111222' 
TABS,ioos:station:wmo:42046:1,2008-09-02T11:00:00Z,27.8903,-94.0367,4.0,9.249345923,225.5257386,11.7,'11111222,11111222,11111222' 
TABS,ioos:station:wmo:42046:1,2008-09-02T11:30:00Z,27.8903,-94.0367,4.0,8.747942615,225.8800823,11.01,'11111222,11111222,11111222' 
TABS,ioos:station:wmo:42046:1,2008-09-02T12:00:00Z,27.8903,-94.0367,4.0,8.69457302,229.384505,10.77,'11111222,11111222,11111222' 
TABS,ioos:station:wmo:42046:1,2008-09-02T12:30:00Z,27.8903,-94.0367,4.0,8.94331594,228.0366954,11.43,'11111222,11111222,11111222' 
TABS,ioos:station:wmo:42046:1,2008-09-02T13:00:00Z,27.8903,-94.0367,4.0,9.672486754,228.0172886,12.34,'11111222,11111222,11111222' 
TABS,ioos:station:wmo:42046:1,2008-09-02T13:30:00Z,27.8903,-94.0367,4.0,9.800591819,225.2481368,12.24,'11111222,11111222,11111222' 
TABS,ioos:station:wmo:42046:1,2008-09-02T14:00:00Z,27.8903,-94.0367,4.0,9.687404193,225.1673913,12.54,'11111222,11111222,11111222' 
TABS,ioos:station:wmo:42046:1,2008-09-02T14:30:00Z,27.8903,-94.0367,4.0,9.063354787,229.3850866,11.38,'11111222,11111222,11111222' 
TABS,ioos:station:wmo:42046:1,2008-09-02T15:00:00Z,27.8903,-94.0367,4.0,9.413872742,229.0489177,11.94,'11111222,11111222,11111222' 
TABS,ioos:station:wmo:42046:1,2008-09-02T15:30:00Z,27.8903,-94.0367,4.0,9.040409283,226.6136404,11.49,'11111222,11111222,11111222' 
TABS,ioos:station:wmo:42046:1,2008-09-02T16:00:00Z,27.8903,-94.0367,4.0,8.653767965,227.1073345,11.25,'11111222,11111222,11111222' 
TABS,ioos:station:wmo:42046:1,2008-09-02T16:30:00Z,27.8903,-94.0367,4.0,9.135830559,225.0887981,11.99,'11111222,11111222,11111222' 
TABS,ioos:station:wmo:42046:1,2008-09-02T17:00:00Z,27.8903,-94.0367,4.0,8.770547303,229.2074849,11.09,'11111222,11111222,11111222' 
TABS,ioos:station:wmo:42046:1,2008-09-02T17:30:00Z,27.8903,-94.0367,4.0,8.827485486,227.7089457,11.27,'11111222,11111222,11111222' 
TABS,ioos:station:wmo:42046:1,2008-09-02T18:00:00Z,27.8903,-94.0367,4.0,8.174062637,232.9058857,11.19,'11111222,11111222,11111222' 
TABS,ioos:station:wmo:42046:1,2008-09-02T18:30:00Z,27.8903,-94.0367,4.0,8.484391552,228.9666373,10.54,'11111222,11111222,11111222' 
TABS,ioos:station:wmo:42046:1,2008-09-02T19:00:00Z,27.8903,-94.0367,4.0,8.325989431,231.8776482,10.71,'11111222,11111222,11111222' 
TABS,ioos:station:wmo:42046:1,2008-09-02T19:30:00Z,27.8903,-94.0367,4.0,8.002355903,231.2396459,10.06,'11111222,11111222,11111222' 
TABS,ioos:station:wmo:42046:1,2008-09-02T20:00:00Z,27.8903,-94.0367,4.0,8.148797457,232.3286081,10.47,'11111222,11111222,11111222' 
TABS,ioos:station:wmo:42046:1,2008-09-02T20:30:00Z,27.8903,-94.0367,4.0,7.746031242,233.2929178,9.52,'11111222,11111222,11111222' 
TABS,ioos:station:wmo:42046:1,2008-09-02T21:00:00Z,27.8903,-94.0367,4.0,7.716897045,226.4177649,10.05,'11111222,11111222,11111222' 
TABS,ioos:station:wmo:42046:1,2008-09-02T21:30:00Z,27.8903,-94.0367,4.0,7.453891601,227.6643624,9.89,'11111222,11111222,11111222' 
TABS,ioos:station:wmo:42046:1,2008-09-02T22:00:00Z,27.8903,-94.0367,4.0,7.70662053,221.6336524,9.71,'11111222,11111222,11111222' 
TABS,ioos:station:wmo:42046:1,2008-09-02T22:30:00Z,27.8903,-94.0367,4.0,7.376313442,217.3982206,9.79,'11111222,11111222,11111222' 
TABS,ioos:station:wmo:42046:1,2008-09-02T23:00:00Z,27.8903,-94.0367,4.0,7.50416551,214.9608739,9.5,'11111222,11111222,11111222' 
TABS,ioos:station:wmo:42046:1,2008-09-02T23:30:00Z,27.8903,-94.0367,4.0,7.228001107,214.1738808,9.26,'11111222,11111222,11111222' 
TABS,ioos:station:wmo:42046:1,2008-09-03T00:00:00Z,27.8903,-94.0367,4.0,7.388639929,213.5181407,9.19,'11111222,11111222,11111222' 
TABS,ioos:station:wmo:42046:1,2008-09-03T00:30:00Z,27.8903,-94.0367,4.0,7.070113153,209.3932113,9.1,'11111222,11111222,11111222' 
TABS,ioos:station:wmo:42046:1,2008-09-03T01:00:00Z,27.8903,-94.0367,4.0,7.355324602,208.23759,9.12,'11111222,11111222,11111222' 
TABS,ioos:station:wmo:42046:1,2008-09-03T01:30:00Z,27.8903,-94.0367,4.0,7.131178023,208.1104413,8.84,'11111222,11111222,11111222' 
TABS,ioos:station:wmo:42046:1,2008-09-03T02:00:00Z,27.8903,-94.0367,4.0,7.435892683,203.2898045,9.62,'11111222,11111222,11111222' 
TABS,ioos:station:wmo:42046:1,2008-09-03T02:30:00Z,27.8903,-94.0367,4.0,7.031159222,205.617648,8.82,'11111222,11111222,11111222' 
TABS,ioos:station:wmo:42046:1,2008-09-03T03:00:00Z,27.8903,-94.0367,4.0,6.878233785,204.4785778,8.6,'11111222,11111222,11111222' 
TABS,ioos:station:wmo:42046:1,2008-09-03T03:30:00Z,27.8903,-94.0367,4.0,7.605918748,204.8805191,9.91,'11111222,11111222,11111222' 
TABS,ioos:station:wmo:42046:1,2008-09-03T04:00:00Z,27.8903,-94.0367,4.0,7.46860094,206.2221159,9.23,'11111222,11111222,11111222' 
TABS,ioos:station:wmo:42046:1,2008-09-03T04:30:00Z,27.8903,-94.0367,4.0,7.584510531,201.0159776,9.48,'11111222,11111222,11111222' 
TABS,ioos:station:wmo:42046:1,2008-09-03T05:00:00Z,27.8903,-94.0367,4.0,8.345178249,201.954561,9.9,'11111222,11111222,11111222' 
TABS,ioos:station:wmo:42046:1,2008-09-03T05:30:00Z,27.8903,-94.0367,4.0,8.393866809,203.969574,10.62,'11111222,11111222,11111222' 
TABS,ioos:station:wmo:42046:1,2008-09-03T06:00:00Z,27.8903,-94.0367,4.0,8.230151882,199.6680373,10.06,'11111222,11111222,11111222' 
TABS,ioos:station:wmo:42046:1,2008-09-03T06:30:00Z,27.8903,-94.0367,4.0,8.38504025,200.9640843,10.5,'11111222,11111222,11111222' 
TABS,ioos:station:wmo:42046:1,2008-09-03T07:00:00Z,27.8903,-94.0367,4.0,8.680812174,198.95692,10.79,'11111222,11111222,11111222' 
TABS,ioos:station:wmo:42046:1,2008-09-03T07:30:00Z,27.8903,-94.0367,4.0,8.654854129,203.7811585,11.2,'11111222,11111222,11111222' 
TABS,ioos:station:wmo:42046:1,2008-09-03T08:00:00Z,27.8903,-94.0367,4.0,8.467915918,202.2036371,10.6,'11111222,11111222,11111222' 
TABS,ioos:station:wmo:42046:1,2008-09-03T08:30:00Z,27.8903,-94.0367,4.0,8.631205014,204.7242936,10.77,'11111222,11111222,11111222' 
TABS,ioos:station:wmo:42046:1,2008-09-03T09:00:00Z,27.8903,-94.0367,4.0,8.077276769,207.2631186,10.15,'11111222,11111222,11111222' 
TABS,ioos:station:wmo:42046:1,2008-09-03T09:30:00Z,27.8903,-94.0367,4.0,7.819769818,205.1232795,9.62,'11111222,11111222,11111222' 
TABS,ioos:station:wmo:42046:1,2008-09-03T10:00:00Z,27.8903,-94.0367,4.0,8.351347197,203.6491749,10.08,'11111222,11111222,11111222' 
TABS,ioos:station:wmo:42046:1,2008-09-03T10:30:00Z,27.8903,-94.0367,4.0,7.810313694,216.3565023,9.92,'11111222,11111222,11111222' 
TABS,ioos:station:wmo:42046:1,2008-09-03T11:00:00Z,27.8903,-94.0367,4.0,7.908236213,214.5944749,10.37,'11111222,11111222,11111222' 
TABS,ioos:station:wmo:42046:1,2008-09-03T11:30:00Z,27.8903,-94.0367,4.0,7.7014609,215.7540141,9.51,'11111222,11111222,11111222' 
TABS,ioos:station:wmo:42046:1,2008-09-03T12:00:00Z,27.8903,-94.0367,4.0,7.680709603,218.3919758,9.87,'11111222,11111222,11111222' 
TABS,ioos:station:wmo:42046:1,2008-09-03T12:30:00Z,27.8903,-94.0367,4.0,7.629849278,219.4691682,9.8,'11111222,11111222,11111222' 
TABS,ioos:station:wmo:42046:1,2008-09-03T13:00:00Z,27.8903,-94.0367,4.0,7.439422021,225.7625498,9.17,'11111222,11111222,11111222' 
TABS,ioos:station:wmo:42046:1,2008-09-03T13:30:00Z,27.8903,-94.0367,4.0,7.305922255,226.1647159,9.28,'11111222,11111222,11111222' 
TABS,ioos:station:wmo:42046:1,2008-09-03T14:00:00Z,27.8903,-94.0367,4.0,7.231604248,221.6928693,9.23,'11111222,11111222,11111222' 
TABS,ioos:station:wmo:42046:1,2008-09-03T14:30:00Z,27.8903,-94.0367,4.0,7.751883642,227.7711565,9.4,'11111222,11111222,11111222' 
TABS,ioos:station:wmo:42046:1,2008-09-03T15:00:00Z,27.8903,-94.0367,4.0,7.262981481,224.0517732,9.23,'11111222,11111222,11111222' 
TABS,ioos:station:wmo:42046:1,2008-09-03T15:30:00Z,27.8903,-94.0367,4.0,7.601263053,229.2679885,9.32,'11111222,11111222,11111222' 
TABS,ioos:station:wmo:42046:1,2008-09-03T16:00:00Z,27.8903,-94.0367,4.0,6.823254356,236.9621287,8.47,'11111222,11111222,11111222' 
TABS,ioos:station:wmo:42046:1,2008-09-03T16:30:00Z,27.8903,-94.0367,4.0,6.744034401,243.2070454,8.36,'11111222,11111222,11111222' 
TABS,ioos:station:wmo:42046:1,2008-09-03T17:00:00Z,27.8903,-94.0367,4.0,6.824727101,243.923101,8.39,'11111222,11111222,11111222' 
TABS,ioos:station:wmo:42046:1,2008-09-03T17:30:00Z,27.8903,-94.0367,4.0,6.684496989,236.9043431,8.73,'11111222,11111222,11111222' 
TABS,ioos:station:wmo:42046:1,2008-09-03T18:00:00Z,27.8903,-94.0367,4.0,6.942341104,236.8135957,8.33,'11111222,11111222,11111222' 
TABS,ioos:station:wmo:42046:1,2008-09-03T18:30:00Z,27.8903,-94.0367,4.0,6.907763748,235.0216517,8.43,'11111222,11111222,11111222' 
TABS,ioos:station:wmo:42046:1,2008-09-03T19:00:00Z,27.8903,-94.0367,4.0,6.713069343,230.5005038,8.19,'11111222,11111222,11111222' 
TABS,ioos:station:wmo:42046:1,2008-09-03T19:30:00Z,27.8903,-94.0367,4.0,6.279721331,235.5761407,8.31,'11111222,11111222,11111222' 
TABS,ioos:station:wmo:42046:1,2008-09-03T20:00:00Z,27.8903,-94.0367,4.0,6.286063951,231.0698202,8.02,'11111222,11111222,11111222' 
TABS,ioos:station:wmo:42046:1,2008-09-03T20:30:00Z,27.8903,-94.0367,4.0,6.248015685,233.0018055,7.85,'11111222,11111222,11111222' 
TABS,ioos:station:wmo:42046:1,2008-09-03T21:00:00Z,27.8903,-94.0367,4.0,6.161404061,230.7303135,7.71,'11111222,11111222,11111222' 
TABS,ioos:station:wmo:42046:1,2008-09-03T21:30:00Z,27.8903,-94.0367,4.0,5.979448135,243.9063931,7.58,'11111222,11111222,11111222' 
TABS,ioos:station:wmo:42046:1,2008-09-03T22:00:00Z,27.8903,-94.0367,4.0,5.783165223,236.9969765,7.46,'11111222,11111222,11111222' 
TABS,ioos:station:wmo:42046:1,2008-09-03T22:30:00Z,27.8903,-94.0367,4.0,5.832752352,236.6097004,7.07,'11111222,11111222,11111222' 
TABS,ioos:station:wmo:42046:1,2008-09-03T23:00:00Z,27.8903,-94.0367,4.0,5.152184003,231.461855,6.44,'11111222,11111222,11111222' 
TABS,ioos:station:wmo:42046:1,2008-09-03T23:30:00Z,27.8903,-94.0367,4.0,5.211420152,225.2333291,6.44,'11111222,11111222,11111222' 
TABS,ioos:station:wmo:42046:1,2008-09-04T00:00:00Z,27.8903,-94.0367,4.0,4.77574078,223.0485642,6.34,'11111222,11111222,11111222' 
TABS,ioos:station:wmo:42046:1,2008-09-04T00:30:00Z,27.8903,-94.0367,4.0,5.333460415,226.5195273,6.49,'11111222,11111222,11111222' 
TABS,ioos:station:wmo:42046:1,2008-09-04T01:00:00Z,27.8903,-94.0367,4.0,5.021175161,224.0318203,6.05,'11111222,11111222,11111222' 
TABS,ioos:station:wmo:42046:1,2008-09-04T01:30:00Z,27.8903,-94.0367,4.0,5.113824401,219.6048533,6.43,'11111222,11111222,11111222' 
TABS,ioos:station:wmo:42046:1,2008-09-04T02:00:00Z,27.8903,-94.0367,4.0,4.801041554,218.0635085,6.18,'11111222,11111222,11111222' 
TABS,ioos:station:wmo:42046:1,2008-09-04T02:30:00Z,27.8903,-94.0367,4.0,4.873150931,219.5046106,5.84,'11111222,11111222,11111222' 
TABS,ioos:station:wmo:42046:1,2008-09-04T03:00:00Z,27.8903,-94.0367,4.0,4.943126541,212.6935741,5.9,'11111222,11111222,11111222' 
TABS,ioos:station:wmo:42046:1,2008-09-04T03:30:00Z,27.8903,-94.0367,4.0,5.020209159,213.2153843,6.11,'11111222,11111222,11111222' 
TABS,ioos:station:wmo:42046:1,2008-09-04T04:00:00Z,27.8903,-94.0367,4.0,5.247475584,213.8113315,6.7,'11111222,11111222,11111222' 
TABS,ioos:station:wmo:42046:1,2008-09-04T04:30:00Z,27.8903,-94.0367,4.0,4.890695247,209.6578364,6.31,'11111222,11111222,11111222' 
TABS,ioos:station:wmo:42046:1,2008-09-04T05:00:00Z,27.8903,-94.0367,4.0,5.317414785,204.203334,6.73,'11111222,11111222,11111222' 
TABS,ioos:station:wmo:42046:1,2008-09-04T05:30:00Z,27.8903,-94.0367,4.0,5.445181356,209.483996,6.62,'11111222,11111222,11111222' 
TABS,ioos:station:wmo:42046:1,2008-09-04T06:00:00Z,27.8903,-94.0367,4.0,5.553602434,214.806207,7.03,'11111222,11111222,11111222' 
TABS,ioos:station:wmo:42046:1,2008-09-04T06:30:00Z,27.8903,-94.0367,4.0,5.244006102,216.7826144,6.66,'11111222,11111222,11111222' 
TABS,ioos:station:wmo:42046:1,2008-09-04T07:00:00Z,27.8903,-94.0367,4.0,5.674028551,216.6882598,7.15,'11111222,11111222,11111222' 
TABS,ioos:station:wmo:42046:1,2008-09-04T07:30:00Z,27.8903,-94.0367,4.0,5.520153983,221.2543879,7.0,'11111222,11111222,11111222' 
TABS,ioos:station:wmo:42046:1,2008-09-04T08:00:00Z,27.8903,-94.0367,4.0,5.657720389,226.0026767,7.29,'11111222,11111222,11111222' 
TABS,ioos:station:wmo:42046:1,2008-09-04T08:30:00Z,27.8903,-94.0367,4.0,5.621859123,225.6487075,7.32,'11111222,11111222,11111222' 
TABS,ioos:station:wmo:42046:1,2008-09-04T09:00:00Z,27.8903,-94.0367,4.0,6.064396095,227.2052658,7.81,'11111222,11111222,11111222' 
TABS,ioos:station:wmo:42046:1,2008-09-04T09:30:00Z,27.8903,-94.0367,4.0,5.571759148,227.8370858,7.15,'11111222,11111222,11111222' 
TABS,ioos:station:wmo:42046:1,2008-09-04T10:00:00Z,27.8903,-94.0367,4.0,5.880493177,228.5850264,7.28,'11111222,11111222,11111222' 
TABS,ioos:station:wmo:42046:1,2008-09-04T10:30:00Z,27.8903,-94.0367,4.0,5.733620148,220.1895303,7.05,'11111222,11111222,11111222' 
TABS,ioos:station:wmo:42046:1,2008-09-04T11:00:00Z,27.8903,-94.0367,4.0,5.87830758,223.4147099,7.46,'11111222,11111222,11111222' 
TABS,ioos:station:wmo:42046:1,2008-09-04T11:30:00Z,27.8903,-94.0367,4.0,6.399976562,225.82308,8.16,'11111222,11111222,11111222' 
TABS,ioos:station:wmo:42046:1,2008-09-04T12:00:00Z,27.8903,-94.0367,4.0,6.403014915,234.1503406,7.8,'11111222,11111222,11111222' 
TABS,ioos:station:wmo:42046:1,2008-09-04T12:30:00Z,27.8903,-94.0367,4.0,6.412339667,232.5404538,8.11,'11111222,11111222,11111222' 
TABS,ioos:station:wmo:42046:1,2008-09-04T13:00:00Z,27.8903,-94.0367,4.0,6.31197275,227.1829632,7.86,'11111222,11111222,11111222' 
TABS,ioos:station:wmo:42046:1,2008-09-04T13:30:00Z,27.8903,-94.0367,4.0,6.264702706,234.8132557,8.13,'11111222,11111222,11111222' 
TABS,ioos:station:wmo:42046:1,2008-09-04T14:00:00Z,27.8903,-94.0367,4.0,5.923681288,238.6713804,7.65,'11111222,11111222,11111222' 
TABS,ioos:station:wmo:42046:1,2008-09-04T14:30:00Z,27.8903,-94.0367,4.0,5.091807145,238.9012304,6.5,'11111222,11111222,11111222' 
TABS,ioos:station:wmo:42046:1,2008-09-04T15:00:00Z,27.8903,-94.0367,4.0,4.490033407,243.5491455,5.72,'11111222,11111222,11111222' 
TABS,ioos:station:wmo:42046:1,2008-09-04T15:30:00Z,27.8903,-94.0367,4.0,9.87980263,325.6825013,14.2,'11111222,11111222,11111222' 
TABS,ioos:station:wmo:42046:1,2008-09-04T16:00:00Z,27.8903,-94.0367,4.0,5.123768145,109.4962358,7.33,'11111222,11111222,11111222' 
TABS,ioos:station:wmo:42046:1,2008-09-04T16:30:00Z,27.8903,-94.0367,4.0,1.120401714,88.46524117,2.84,'11111222,11111222,11111222' 
TABS,ioos:station:wmo:42046:1,2008-09-04T17:00:00Z,27.8903,-94.0367,4.0,2.554310083,132.9379288,3.44,'11111222,11111222,11111222' 
TABS,ioos:station:wmo:42046:1,2008-09-04T17:30:00Z,27.8903,-94.0367,4.0,3.216022388,194.0364211,4.46,'11111222,11111222,11111222' 
TABS,ioos:station:wmo:42046:1,2008-09-04T18:00:00Z,27.8903,-94.0367,4.0,3.063413129,203.4688914,4.35,'11111222,11111222,11111222' 
TABS,ioos:station:wmo:42046:1,2008-09-04T18:30:00Z,27.8903,-94.0367,4.0,2.547174906,237.9946916,3.48,'11111222,11111222,11111222' 